,,,PA_Meas_PMT16A,,PR_Meas_QMR101_102,,RH_Meas_QMH101,,SR_Meas_QMS101,,TA_Meas_QMH101,,GenWind,,GenWind,
date,time,status,PA,status,PR,status,RH,status,SR,status,TA,status,DirAvg,status,SpdAvg,
2009-10-09, 00:00:04,VALID,1000.12,VALID,0,VALID,91.441,VALID,0,VALID,23.428,VALID,55,VALID,0.732422,
2009-10-09, 00:01:04,VALID,1000.14,VALID,0,VALID,91.3494,VALID,0,VALID,23.4475,VALID,55,VALID,0.5875,
2009-10-09, 00:02:04,VALID,1000.11,VALID,0,VALID,91.235,VALID,0,VALID,23.4475,VALID,55,VALID,0.657031,
2009-10-09, 00:03:04,VALID,1000.12,VALID,0,VALID,91.2579,VALID,0,VALID,23.4493,VALID,55,VALID,0.754687,
2009-10-09, 00:04:04,VALID,1000.09,VALID,0,VALID,91.2274,VALID,0,VALID,23.428,VALID,55,VALID,0.678906,
2009-10-09, 00:05:04,VALID,1000.07,VALID,0,VALID,91.2274,VALID,0,VALID,23.4493,VALID,55,VALID,0.630859,
2009-10-09, 00:06:04,VALID,1000.08,VALID,0,VALID,91.2274,VALID,0,VALID,23.428,VALID,55,VALID,0.586328,
2009-10-09, 00:07:04,VALID,1000.02,VALID,0,VALID,91.3037,VALID,0,VALID,23.4085,VALID,55,VALID,0.336328,
2009-10-09, 00:08:04,VALID,1000.01,VALID,0,VALID,91.2579,VALID,0,VALID,23.4085,VALID,55,VALID,0.523047,
2009-10-09, 00:09:04,VALID,999.982,VALID,0,VALID,91.3494,VALID,0,VALID,23.4085,VALID,74,VALID,0.660547,
2009-10-09, 00:10:04,VALID,999.972,VALID,0,VALID,91.1816,VALID,0,VALID,23.4493,VALID,82,VALID,0.295312,
2009-10-09, 00:11:04,VALID,999.953,VALID,0,VALID,91.0366,VALID,0,VALID,23.4493,VALID,82,VALID,0.4625,
2009-10-09, 00:12:04,VALID,999.93,VALID,0,VALID,91.0214,VALID,0,VALID,23.4688,VALID,82,VALID,0.401953,
2009-10-09, 00:13:04,VALID,999.894,VALID,0,VALID,90.9451,VALID,0,VALID,23.428,VALID,82,VALID,0.361719,
2009-10-09, 00:14:04,VALID,999.89,VALID,0,VALID,90.8993,VALID,0,VALID,23.4085,VALID,82,VALID,0.3625,
2009-10-09, 00:15:04,VALID,999.896,VALID,0,VALID,91.0671,VALID,0,VALID,23.428,VALID,113,VALID,0.479297,
2009-10-09, 00:16:04,VALID,999.87,VALID,0,VALID,91.0977,VALID,0,VALID,23.428,VALID,101,VALID,0.591797,
2009-10-09, 00:17:04,VALID,999.847,VALID,0,VALID,91.2884,VALID,0,VALID,23.4475,VALID,103,VALID,1.09961,
2009-10-09, 00:18:04,VALID,999.858,VALID,0,VALID,91.0443,VALID,0,VALID,23.4671,VALID,101,VALID,0.412109,
2009-10-09, 00:19:04,VALID,999.843,VALID,0,VALID,90.9832,VALID,0,VALID,23.5079,VALID,107,VALID,0.485156,
2009-10-09, 00:20:04,VALID,999.874,VALID,0,VALID,90.9909,VALID,0,VALID,23.5274,VALID,107,VALID,0.680859,
2009-10-09, 00:21:04,VALID,999.853,VALID,0,VALID,90.7925,VALID,0,VALID,23.5664,VALID,107,VALID,0.302344,
2009-10-09, 00:22:04,VALID,999.844,VALID,0,VALID,90.6246,VALID,0,VALID,23.5469,VALID,107,VALID,0.213672,
2009-10-09, 00:23:04,VALID,999.814,VALID,0,VALID,90.6017,VALID,0,VALID,23.5256,VALID,107,VALID,0.216797,
2009-10-09, 00:24:04,VALID,999.806,VALID,0,VALID,90.7238,VALID,0,VALID,23.5061,VALID,117,VALID,0.464063,
2009-10-09, 00:25:04,VALID,999.77,VALID,0,VALID,90.5788,VALID,0,VALID,23.5079,VALID,117,VALID,0.297656,
2009-10-09, 00:26:04,VALID,999.761,VALID,0,VALID,90.6399,VALID,0,VALID,23.5061,VALID,117,VALID,0.333594,
2009-10-09, 00:27:04,VALID,999.776,VALID,0,VALID,90.6399,VALID,0,VALID,23.4866,VALID,117,VALID,0.285156,
2009-10-09, 00:28:04,VALID,999.756,VALID,0,VALID,90.7009,VALID,0,VALID,23.4866,VALID,117,VALID,0.253906,
2009-10-09, 00:29:04,VALID,999.761,VALID,0,VALID,90.7314,VALID,0,VALID,23.4866,VALID,117,VALID,0.303906,
2009-10-09, 00:30:04,VALID,999.765,VALID,0,VALID,90.7391,VALID,0,VALID,23.4653,VALID,117,VALID,0.187109,
2009-10-09, 00:31:04,VALID,999.762,VALID,0,VALID,90.762,VALID,0,VALID,23.4671,VALID,117,VALID,0.142188,
2009-10-09, 00:32:04,VALID,999.732,VALID,0,VALID,90.7543,VALID,0,VALID,23.4263,VALID,117,VALID,0.270703,
2009-10-09, 00:33:04,VALID,999.747,VALID,0,VALID,90.8764,VALID,0,VALID,23.4475,VALID,117,VALID,0.274219,
2009-10-09, 00:34:04,VALID,999.711,VALID,0,VALID,90.9069,VALID,0,VALID,23.4475,VALID,117,VALID,0.307031,
2009-10-09, 00:35:04,VALID,999.737,VALID,0,VALID,90.9603,VALID,0,VALID,23.4671,VALID,117,VALID,0.224219,
2009-10-09, 00:36:04,VALID,999.719,VALID,0,VALID,90.968,VALID,0,VALID,23.4475,VALID,117,VALID,0.0449219,
2009-10-09, 00:37:04,VALID,999.697,VALID,0,VALID,90.968,VALID,0.112286,VALID,23.4458,VALID,117,VALID,0,
2009-10-09, 00:38:04,VALID,999.642,VALID,0,VALID,90.9298,VALID,0.112286,VALID,23.4263,VALID,117,VALID,0,
2009-10-09, 00:39:04,VALID,999.675,VALID,0,VALID,90.8688,VALID,0,VALID,23.4067,VALID,117,VALID,0,
2009-10-09, 00:40:04,VALID,999.643,VALID,0,VALID,90.9222,VALID,0,VALID,23.3872,VALID,117,VALID,0,
2009-10-09, 00:41:04,VALID,999.632,VALID,0,VALID,90.8993,VALID,0.112286,VALID,23.3482,VALID,117,VALID,0.0140625,
2009-10-09, 00:42:04,VALID,999.606,VALID,0,VALID,90.8993,VALID,0,VALID,23.35,VALID,117,VALID,0,
2009-10-09, 00:43:04,VALID,999.614,VALID,0,VALID,90.8611,VALID,0.112286,VALID,23.3092,VALID,117,VALID,0,
2009-10-09, 00:44:04,VALID,999.582,VALID,0,VALID,90.7849,VALID,0,VALID,23.2932,VALID,117,VALID,0.250781,
2009-10-09, 00:45:04,VALID,999.561,VALID,0,VALID,90.9298,VALID,0,VALID,23.2737,VALID,41,VALID,0.510156,
2009-10-09, 00:46:04,VALID,999.542,VALID,0,VALID,91.0671,VALID,0,VALID,23.2134,VALID,1,VALID,0.644141,
2009-10-09, 00:47:04,VALID,999.519,VALID,0,VALID,91.2579,VALID,0,VALID,23.1939,VALID,352,VALID,0.666797,
2009-10-09, 00:48:04,VALID,999.529,VALID,0,VALID,91.2884,VALID,0,VALID,23.1549,VALID,348,VALID,0.626562,
2009-10-09, 00:49:04,VALID,999.487,VALID,0,VALID,91.3723,VALID,0,VALID,23.1354,VALID,348,VALID,0.608984,
2009-10-09, 00:50:04,VALID,999.505,VALID,0,VALID,91.5326,VALID,0,VALID,23.1371,VALID,348,VALID,0.211719,
2009-10-09, 00:51:04,VALID,999.47,VALID,0,VALID,91.6546,VALID,0,VALID,23.1176,VALID,348,VALID,0.128906,
2009-10-09, 00:52:04,VALID,999.457,VALID,0,VALID,91.708,VALID,0,VALID,23.0964,VALID,348,VALID,0.170703,
2009-10-09, 00:53:04,VALID,999.475,VALID,0,VALID,91.6317,VALID,0,VALID,23.0769,VALID,348,VALID,0.0355469,
2009-10-09, 00:54:04,VALID,999.453,VALID,0,VALID,91.647,VALID,0,VALID,23.0378,VALID,348,VALID,0,
2009-10-09, 00:55:04,VALID,999.452,VALID,0,VALID,91.6775,VALID,0,VALID,23.0378,VALID,348,VALID,0,
2009-10-09, 00:56:04,VALID,999.415,VALID,0,VALID,91.6165,VALID,0,VALID,23.0396,VALID,348,VALID,0,
2009-10-09, 00:57:04,VALID,999.399,VALID,0,VALID,91.708,VALID,0,VALID,23.0006,VALID,348,VALID,0,
2009-10-09, 00:58:04,VALID,999.375,VALID,0,VALID,91.853,VALID,0,VALID,22.9793,VALID,348,VALID,0,
2009-10-09, 00:59:04,VALID,999.356,VALID,0,VALID,91.8759,VALID,0,VALID,22.9615,VALID,348,VALID,0,
2009-10-09, 01:00:04,VALID,999.333,VALID,0,VALID,91.9064,VALID,0,VALID,22.9403,VALID,348,VALID,0.572266,
2009-10-09, 01:01:04,VALID,999.317,VALID,0,VALID,91.9369,VALID,0,VALID,22.9013,VALID,348,VALID,0.537109,
2009-10-09, 01:02:04,VALID,999.298,VALID,0,VALID,92.2421,VALID,0,VALID,22.942,VALID,348,VALID,0.462891,
2009-10-09, 01:03:04,VALID,999.261,VALID,0,VALID,92.4023,VALID,0,VALID,22.9403,VALID,348,VALID,0.526563,
2009-10-09, 01:04:04,VALID,999.227,VALID,0,VALID,92.4252,VALID,0,VALID,22.9403,VALID,348,VALID,0.530078,
2009-10-09, 01:05:04,VALID,999.201,VALID,0,VALID,92.4481,VALID,0,VALID,22.9615,VALID,349,VALID,0.442969,
2009-10-09, 01:06:04,VALID,999.184,VALID,0,VALID,92.3718,VALID,0,VALID,22.9403,VALID,349,VALID,0.543359,
2009-10-09, 01:07:04,VALID,999.172,VALID,0,VALID,92.4328,VALID,0,VALID,22.9403,VALID,349,VALID,0.548047,
2009-10-09, 01:08:04,VALID,999.155,VALID,0,VALID,92.4176,VALID,0,VALID,22.9208,VALID,349,VALID,0.575781,
2009-10-09, 01:09:04,VALID,999.149,VALID,0,VALID,92.3184,VALID,0,VALID,22.942,VALID,355,VALID,0.601953,
2009-10-09, 01:10:04,VALID,999.133,VALID,0,VALID,92.1887,VALID,0,VALID,22.9225,VALID,35,VALID,0.691016,
2009-10-09, 01:11:04,VALID,999.131,VALID,0,VALID,92.0285,VALID,0,VALID,22.8623,VALID,42,VALID,0.487891,
2009-10-09, 01:12:04,VALID,999.132,VALID,0,VALID,91.8911,VALID,0,VALID,22.8427,VALID,42,VALID,0.45,
2009-10-09, 01:13:04,VALID,999.118,VALID,0,VALID,91.9445,VALID,0,VALID,22.8445,VALID,42,VALID,0.535156,
2009-10-09, 01:14:04,VALID,999.141,VALID,0,VALID,91.9751,VALID,0,VALID,22.825,VALID,42,VALID,0.533594,
2009-10-09, 01:15:04,VALID,999.106,VALID,0,VALID,92.0132,VALID,0,VALID,22.8232,VALID,42,VALID,0.520703,
2009-10-09, 01:16:04,VALID,999.12,VALID,0,VALID,92.0971,VALID,0,VALID,22.825,VALID,47,VALID,0.550781,
2009-10-09, 01:17:04,VALID,999.091,VALID,0,VALID,92.1048,VALID,0,VALID,22.825,VALID,47,VALID,0.463672,
2009-10-09, 01:18:04,VALID,999.09,VALID,0,VALID,92.0514,VALID,0,VALID,22.825,VALID,47,VALID,0.43125,
2009-10-09, 01:19:04,VALID,999.06,VALID,0,VALID,91.9903,VALID,0,VALID,22.825,VALID,47,VALID,0.484766,
2009-10-09, 01:20:04,VALID,999.016,VALID,0,VALID,92.1734,VALID,0,VALID,22.825,VALID,57,VALID,0.638281,
2009-10-09, 01:21:04,VALID,999.026,VALID,0,VALID,92.204,VALID,0,VALID,22.8445,VALID,57,VALID,0.680469,
2009-10-09, 01:22:04,VALID,999.001,VALID,0,VALID,92.1887,VALID,0,VALID,22.864,VALID,61,VALID,0.64375,
2009-10-09, 01:23:04,VALID,998.931,VALID,0,VALID,92.12,VALID,0,VALID,22.8427,VALID,61,VALID,0.543359,
2009-10-09, 01:24:04,VALID,998.951,VALID,0,VALID,92.0971,VALID,0,VALID,22.864,VALID,72,VALID,0.667969,
2009-10-09, 01:25:04,VALID,998.944,VALID,0,VALID,92.1506,VALID,0,VALID,22.8427,VALID,72,VALID,0.59375,
2009-10-09, 01:26:04,VALID,998.922,VALID,0,VALID,92.0743,VALID,0,VALID,22.864,VALID,72,VALID,0.479688,
2009-10-09, 01:27:04,VALID,998.898,VALID,0,VALID,91.9751,VALID,0,VALID,22.8445,VALID,72,VALID,0.283594,
2009-10-09, 01:28:04,VALID,998.912,VALID,0,VALID,92.0209,VALID,0,VALID,22.8055,VALID,72,VALID,0.173828,
2009-10-09, 01:29:04,VALID,998.893,VALID,0,VALID,92.0971,VALID,0,VALID,22.7842,VALID,72,VALID,0.180859,
2009-10-09, 01:30:04,VALID,998.903,VALID,0,VALID,92.12,VALID,0,VALID,22.7842,VALID,72,VALID,0,
2009-10-09, 01:31:04,VALID,998.917,VALID,0,VALID,92.1353,VALID,0,VALID,22.7842,VALID,72,VALID,0.00507812,
2009-10-09, 01:32:04,VALID,998.924,VALID,0,VALID,92.204,VALID,0.112286,VALID,22.7435,VALID,72,VALID,0.271484,
2009-10-09, 01:33:04,VALID,998.871,VALID,0,VALID,92.1734,VALID,0,VALID,22.7435,VALID,72,VALID,0.5875,
2009-10-09, 01:34:04,VALID,998.906,VALID,0,VALID,92.4328,VALID,0,VALID,22.7842,VALID,72,VALID,0.635938,
2009-10-09, 01:35:04,VALID,998.9,VALID,0,VALID,92.5397,VALID,0.112286,VALID,22.7825,VALID,72,VALID,0.566406,
2009-10-09, 01:36:04,VALID,998.896,VALID,0,VALID,92.532,VALID,0,VALID,22.8037,VALID,72,VALID,0.417188,
2009-10-09, 01:37:04,VALID,998.855,VALID,0,VALID,92.5473,VALID,0,VALID,22.8232,VALID,90,VALID,0.548437,
2009-10-09, 01:38:04,VALID,998.848,VALID,0,VALID,92.6083,VALID,0,VALID,22.8215,VALID,90,VALID,0.286328,
2009-10-09, 01:39:04,VALID,998.816,VALID,0,VALID,92.6007,VALID,0,VALID,22.8605,VALID,90,VALID,0.441797,
2009-10-09, 01:40:04,VALID,998.82,VALID,0,VALID,92.616,VALID,0,VALID,22.88,VALID,125,VALID,0.564844,
2009-10-09, 01:41:04,VALID,998.816,VALID,0,VALID,92.5702,VALID,0,VALID,22.88,VALID,125,VALID,0.563281,
2009-10-09, 01:42:04,VALID,998.815,VALID,0,VALID,92.5854,VALID,0,VALID,22.9013,VALID,125,VALID,0.461719,
2009-10-09, 01:43:05,VALID,998.79,VALID,0,VALID,92.5473,VALID,0,VALID,22.88,VALID,125,VALID,0.348828,
2009-10-09, 01:44:05,VALID,998.826,VALID,0,VALID,92.5549,VALID,0,VALID,22.9403,VALID,125,VALID,0.424609,
2009-10-09, 01:45:05,VALID,998.789,VALID,0,VALID,92.532,VALID,0,VALID,22.9403,VALID,158,VALID,0.479688,
2009-10-09, 01:46:05,VALID,998.805,VALID,0,VALID,92.5397,VALID,0,VALID,22.9598,VALID,157,VALID,0.857422,
2009-10-09, 01:47:05,VALID,998.819,VALID,0,VALID,92.4481,VALID,0,VALID,22.9793,VALID,157,VALID,0.820313,
2009-10-09, 01:48:05,VALID,998.806,VALID,0,VALID,92.5244,VALID,0,VALID,22.9971,VALID,157,VALID,0.834766,
2009-10-09, 01:49:05,VALID,998.798,VALID,0,VALID,92.4405,VALID,0,VALID,23.0769,VALID,157,VALID,0.735547,
2009-10-09, 01:50:05,VALID,998.803,VALID,0,VALID,92.2726,VALID,0,VALID,23.0964,VALID,157,VALID,0.705859,
2009-10-09, 01:51:05,VALID,998.783,VALID,0,VALID,92.1658,VALID,0,VALID,23.1336,VALID,156,VALID,1.21602,
2009-10-09, 01:52:05,VALID,998.761,VALID,0,VALID,92.0285,VALID,0,VALID,23.1939,VALID,155,VALID,0.9375,
2009-10-09, 01:53:05,VALID,998.762,VALID,0,VALID,91.8072,VALID,0,VALID,23.2134,VALID,152,VALID,0.784766,
2009-10-09, 01:54:05,VALID,998.753,VALID,0,VALID,91.6699,VALID,0,VALID,23.2134,VALID,140,VALID,0.721875,
2009-10-09, 01:55:05,VALID,998.769,VALID,0,VALID,91.5249,VALID,0.112286,VALID,23.1726,VALID,139,VALID,0.611328,
2009-10-09, 01:56:05,VALID,998.749,VALID,0,VALID,91.5326,VALID,0,VALID,23.1921,VALID,138,VALID,0.370313,
2009-10-09, 01:57:05,VALID,998.783,VALID,0,VALID,91.5326,VALID,0,VALID,23.1744,VALID,138,VALID,0.396875,
2009-10-09, 01:58:05,VALID,998.774,VALID,0,VALID,91.5402,VALID,0,VALID,23.1744,VALID,138,VALID,0.389844,
2009-10-09, 01:59:05,VALID,998.739,VALID,0,VALID,91.5249,VALID,0,VALID,23.1531,VALID,137,VALID,0.441016,
2009-10-09, 02:00:05,VALID,998.761,VALID,0,VALID,91.4944,VALID,0,VALID,23.1531,VALID,95,VALID,0.607813,
2009-10-09, 02:01:05,VALID,998.731,VALID,0,VALID,91.4486,VALID,0,VALID,23.1744,VALID,74,VALID,0.676953,
2009-10-09, 02:02:05,VALID,998.732,VALID,0,VALID,91.3952,VALID,0.112286,VALID,23.1549,VALID,63,VALID,0.491797,
2009-10-09, 02:03:05,VALID,998.72,VALID,0,VALID,91.3113,VALID,0,VALID,23.1549,VALID,63,VALID,0.534375,
2009-10-09, 02:04:05,VALID,998.704,VALID,0,VALID,91.1968,VALID,0,VALID,23.1141,VALID,63,VALID,0.5875,
2009-10-09, 02:05:05,VALID,998.714,VALID,0,VALID,91.1892,VALID,0,VALID,23.0751,VALID,62,VALID,0.629687,
2009-10-09, 02:06:05,VALID,998.666,VALID,0,VALID,91.2197,VALID,0,VALID,23.0751,VALID,40,VALID,0.605469,
2009-10-09, 02:07:05,VALID,998.67,VALID,0,VALID,91.235,VALID,0,VALID,23.0769,VALID,33,VALID,0.603516,
2009-10-09, 02:08:05,VALID,998.679,VALID,0,VALID,91.3952,VALID,0,VALID,23.0573,VALID,33,VALID,0.484766,
2009-10-09, 02:09:05,VALID,998.659,VALID,0,VALID,91.38,VALID,0.112286,VALID,23.0573,VALID,33,VALID,0.602734,
2009-10-09, 02:10:05,VALID,998.634,VALID,0,VALID,91.4105,VALID,0,VALID,23.0573,VALID,33,VALID,0.630469,
2009-10-09, 02:11:05,VALID,998.638,VALID,0,VALID,91.4257,VALID,0,VALID,23.0378,VALID,25,VALID,0.658203,
2009-10-09, 02:12:05,VALID,998.608,VALID,0,VALID,91.4563,VALID,0,VALID,23.0183,VALID,25,VALID,0.644531,
2009-10-09, 02:13:05,VALID,998.575,VALID,0,VALID,91.4868,VALID,0,VALID,23.0183,VALID,25,VALID,0.523047,
2009-10-09, 02:14:05,VALID,998.561,VALID,0,VALID,91.3266,VALID,0.112286,VALID,22.9776,VALID,25,VALID,0.499609,
2009-10-09, 02:15:05,VALID,998.58,VALID,0,VALID,91.296,VALID,0,VALID,22.9598,VALID,25,VALID,0.373828,
2009-10-09, 02:16:05,VALID,998.55,VALID,0,VALID,91.3342,VALID,0,VALID,22.8995,VALID,25,VALID,0.302344,
2009-10-09, 02:17:05,VALID,998.568,VALID,0,VALID,91.4028,VALID,0,VALID,22.88,VALID,25,VALID,0.311719,
2009-10-09, 02:18:05,VALID,998.56,VALID,0,VALID,91.4715,VALID,0,VALID,22.8605,VALID,25,VALID,0.458594,
2009-10-09, 02:19:05,VALID,998.526,VALID,0,VALID,91.6012,VALID,0,VALID,22.8605,VALID,25,VALID,0.558594,
2009-10-09, 02:20:05,VALID,998.543,VALID,0,VALID,91.8148,VALID,0,VALID,22.841,VALID,25,VALID,0.636328,
2009-10-09, 02:21:05,VALID,998.504,VALID,0,VALID,91.9445,VALID,0,VALID,22.8818,VALID,25,VALID,0.641016,
2009-10-09, 02:22:05,VALID,998.495,VALID,0,VALID,91.9674,VALID,0,VALID,22.88,VALID,25,VALID,0.625391,
2009-10-09, 02:23:05,VALID,998.499,VALID,0,VALID,91.914,VALID,0,VALID,22.8818,VALID,25,VALID,0.563281,
2009-10-09, 02:24:05,VALID,998.474,VALID,0,VALID,91.9064,VALID,0,VALID,22.8818,VALID,42,VALID,0.5875,
2009-10-09, 02:25:05,VALID,998.463,VALID,0,VALID,91.9445,VALID,0.112286,VALID,22.8605,VALID,72,VALID,0.555469,
2009-10-09, 02:26:05,VALID,998.44,VALID,0,VALID,92.0437,VALID,0,VALID,22.8818,VALID,101,VALID,0.628516,
2009-10-09, 02:27:05,VALID,998.431,VALID,0,VALID,92.1048,VALID,0.112286,VALID,22.88,VALID,101,VALID,0.677344,
2009-10-09, 02:28:05,VALID,998.441,VALID,0,VALID,92.1429,VALID,0,VALID,22.8605,VALID,102,VALID,0.582031,
2009-10-09, 02:29:05,VALID,998.417,VALID,0,VALID,92.1582,VALID,0,VALID,22.8818,VALID,102,VALID,0.409766,
2009-10-09, 02:30:05,VALID,998.406,VALID,0,VALID,92.1582,VALID,0,VALID,22.8818,VALID,102,VALID,0.389062,
2009-10-09, 02:31:05,VALID,998.394,VALID,0,VALID,92.2116,VALID,0,VALID,22.8605,VALID,102,VALID,0.366406,
2009-10-09, 02:32:05,VALID,998.394,VALID,0,VALID,92.2192,VALID,0,VALID,22.8605,VALID,102,VALID,0.330469,
2009-10-09, 02:33:05,VALID,998.372,VALID,0,VALID,92.204,VALID,0,VALID,22.8605,VALID,102,VALID,0.00351562,
2009-10-09, 02:34:05,VALID,998.39,VALID,0,VALID,92.1811,VALID,0,VALID,22.8605,VALID,102,VALID,0.2125,
2009-10-09, 02:35:05,VALID,998.349,VALID,0,VALID,92.204,VALID,0,VALID,22.8605,VALID,102,VALID,0.2125,
2009-10-09, 02:36:05,VALID,998.35,VALID,0,VALID,92.2345,VALID,0,VALID,22.8605,VALID,102,VALID,0.269922,
2009-10-09, 02:37:05,VALID,998.342,VALID,0,VALID,92.2345,VALID,0.112286,VALID,22.8605,VALID,102,VALID,0.185937,
2009-10-09, 02:38:05,VALID,998.322,VALID,0,VALID,92.204,VALID,0,VALID,22.841,VALID,101,VALID,0.435156,
2009-10-09, 02:39:05,VALID,998.309,VALID,0,VALID,92.12,VALID,0,VALID,22.8818,VALID,89,VALID,0.735547,
2009-10-09, 02:40:05,VALID,998.309,VALID,0,VALID,92.0209,VALID,0,VALID,22.8605,VALID,89,VALID,0.75625,
2009-10-09, 02:41:05,VALID,998.277,VALID,0,VALID,91.9445,VALID,0,VALID,22.88,VALID,90,VALID,0.721875,
2009-10-09, 02:42:05,VALID,998.292,VALID,0,VALID,91.9064,VALID,0.112286,VALID,22.9208,VALID,90,VALID,0.676172,
2009-10-09, 02:43:05,VALID,998.305,VALID,0,VALID,91.8301,VALID,0,VALID,22.8995,VALID,90,VALID,0.772656,
2009-10-09, 02:44:05,VALID,998.286,VALID,0,VALID,91.7767,VALID,0,VALID,22.9013,VALID,86,VALID,0.663672,
2009-10-09, 02:45:05,VALID,998.284,VALID,0,VALID,91.6699,VALID,0,VALID,22.9208,VALID,40,VALID,0.890625,
2009-10-09, 02:46:05,VALID,998.317,VALID,0,VALID,91.6623,VALID,0,VALID,22.9403,VALID,28,VALID,0.992188,
2009-10-09, 02:47:05,VALID,998.275,VALID,0,VALID,91.586,VALID,0,VALID,22.9208,VALID,28,VALID,0.801172,
2009-10-09, 02:48:05,VALID,998.249,VALID,0,VALID,91.6088,VALID,0,VALID,22.9013,VALID,21,VALID,0.853125,
2009-10-09, 02:49:05,VALID,998.245,VALID,0,VALID,91.586,VALID,0,VALID,22.903,VALID,21,VALID,0.767969,
2009-10-09, 02:50:05,VALID,998.244,VALID,0,VALID,91.6241,VALID,0,VALID,22.8623,VALID,16,VALID,0.770703,
2009-10-09, 02:51:05,VALID,998.19,VALID,0,VALID,91.6928,VALID,0,VALID,22.8427,VALID,16,VALID,0.533594,
2009-10-09, 02:52:05,VALID,998.174,VALID,0,VALID,91.6928,VALID,0,VALID,22.8445,VALID,17,VALID,0.607422,
2009-10-09, 02:53:05,VALID,998.168,VALID,0,VALID,91.6394,VALID,0,VALID,22.8037,VALID,17,VALID,0.250781,
2009-10-09, 02:54:05,VALID,998.161,VALID,0,VALID,91.6699,VALID,0,VALID,22.7647,VALID,17,VALID,0.248047,
2009-10-09, 02:55:05,VALID,998.127,VALID,0,VALID,91.7614,VALID,0,VALID,22.7664,VALID,17,VALID,0.24375,
2009-10-09, 02:56:05,VALID,998.106,VALID,0,VALID,91.7996,VALID,0,VALID,22.7469,VALID,17,VALID,0.0429688,
2009-10-09, 02:57:05,VALID,998.124,VALID,0,VALID,91.8301,VALID,0,VALID,22.7274,VALID,17,VALID,0.00195313,
2009-10-09, 02:58:05,VALID,998.113,VALID,0,VALID,91.853,VALID,0,VALID,22.7079,VALID,17,VALID,0.0851562,
2009-10-09, 02:59:05,VALID,998.123,VALID,0,VALID,91.9293,VALID,0,VALID,22.685,VALID,17,VALID,0.408594,
2009-10-09, 03:00:05,VALID,998.095,VALID,0,VALID,92.0437,VALID,0.112286,VALID,22.7062,VALID,17,VALID,0.609766,
2009-10-09, 03:01:05,VALID,998.106,VALID,0,VALID,92.0819,VALID,0.112286,VALID,22.7045,VALID,17,VALID,0.730078,
2009-10-09, 03:02:05,VALID,998.075,VALID,0,VALID,92.1506,VALID,0,VALID,22.724,VALID,14,VALID,0.783203,
2009-10-09, 03:03:05,VALID,998.073,VALID,0,VALID,92.1048,VALID,0.112286,VALID,22.763,VALID,12,VALID,0.734766,
2009-10-09, 03:04:05,VALID,998.075,VALID,0,VALID,92.0895,VALID,0.112286,VALID,22.763,VALID,12,VALID,0.648828,
2009-10-09, 03:05:05,VALID,998.079,VALID,0,VALID,92.0285,VALID,0,VALID,22.8037,VALID,12,VALID,0.366406,
2009-10-09, 03:06:05,VALID,998.071,VALID,0,VALID,91.9751,VALID,0,VALID,22.8037,VALID,12,VALID,0.440234,
2009-10-09, 03:07:05,VALID,998.058,VALID,0,VALID,91.8606,VALID,0.112286,VALID,22.802,VALID,12,VALID,0.466406,
2009-10-09, 03:08:05,VALID,998.083,VALID,0,VALID,91.8835,VALID,0.112286,VALID,22.841,VALID,12,VALID,0.302344,
2009-10-09, 03:09:05,VALID,998.051,VALID,0,VALID,91.7996,VALID,0.112286,VALID,22.841,VALID,12,VALID,0.432422,
2009-10-09, 03:10:05,VALID,998.061,VALID,0,VALID,91.7691,VALID,0,VALID,22.841,VALID,12,VALID,0.429297,
2009-10-09, 03:11:05,VALID,998.039,VALID,0,VALID,91.6928,VALID,0,VALID,22.8818,VALID,12,VALID,0.509766,
2009-10-09, 03:12:05,VALID,998.075,VALID,0,VALID,91.4944,VALID,0.112286,VALID,22.8605,VALID,13,VALID,0.577344,
2009-10-09, 03:13:05,VALID,998.052,VALID,0,VALID,91.4181,VALID,0.112286,VALID,22.8605,VALID,13,VALID,0.609766,
2009-10-09, 03:14:05,VALID,998.053,VALID,0,VALID,91.296,VALID,0,VALID,22.8818,VALID,13,VALID,0.677734,
2009-10-09, 03:15:05,VALID,998.045,VALID,0,VALID,91.1587,VALID,0,VALID,22.8623,VALID,13,VALID,0.719531,
2009-10-09, 03:16:05,VALID,998.046,VALID,0,VALID,91.2045,VALID,0,VALID,22.8835,VALID,13,VALID,0.802734,
2009-10-09, 03:17:05,VALID,998.056,VALID,0,VALID,91.3037,VALID,0,VALID,22.864,VALID,13,VALID,0.814844,
2009-10-09, 03:18:05,VALID,998.064,VALID,0,VALID,91.2426,VALID,0,VALID,22.8623,VALID,12,VALID,0.689844,
2009-10-09, 03:19:05,VALID,998.042,VALID,0,VALID,91.1511,VALID,0,VALID,22.8835,VALID,12,VALID,0.529688,
2009-10-09, 03:20:05,VALID,998.069,VALID,0,VALID,91.1129,VALID,0,VALID,22.864,VALID,12,VALID,0.548437,
2009-10-09, 03:21:05,VALID,998.062,VALID,0,VALID,91.1053,VALID,0,VALID,22.8232,VALID,12,VALID,0.614062,
2009-10-09, 03:22:05,VALID,998.069,VALID,0,VALID,91.0061,VALID,0,VALID,22.825,VALID,12,VALID,0.914063,
2009-10-09, 03:23:05,VALID,998.043,VALID,0,VALID,91.0061,VALID,0,VALID,22.8055,VALID,12,VALID,0.917969,
2009-10-09, 03:24:05,VALID,998.062,VALID,0,VALID,90.9527,VALID,0,VALID,22.786,VALID,12,VALID,0.891406,
2009-10-09, 03:25:05,VALID,998.079,VALID,0,VALID,91.029,VALID,0,VALID,22.7647,VALID,12,VALID,0.834375,
2009-10-09, 03:26:05,VALID,998.091,VALID,0,VALID,91.029,VALID,0,VALID,22.7647,VALID,13,VALID,0.775781,
2009-10-09, 03:27:05,VALID,998.073,VALID,0,VALID,91.0366,VALID,0,VALID,22.7647,VALID,13,VALID,0.695313,
2009-10-09, 03:28:05,VALID,998.083,VALID,0,VALID,91.0443,VALID,0,VALID,22.7664,VALID,13,VALID,0.669141,
2009-10-09, 03:29:05,VALID,998.082,VALID,0,VALID,91.1358,VALID,0,VALID,22.7647,VALID,13,VALID,0.712891,
2009-10-09, 03:30:05,VALID,998.077,VALID,0,VALID,91.0671,VALID,0,VALID,22.7842,VALID,13,VALID,0.766016,
2009-10-09, 03:31:05,VALID,998.063,VALID,0,VALID,91.0748,VALID,0,VALID,22.7842,VALID,14,VALID,0.725,
2009-10-09, 03:32:05,VALID,998.058,VALID,0,VALID,91.0519,VALID,0,VALID,22.7842,VALID,18,VALID,0.666016,
2009-10-09, 03:33:05,VALID,998.037,VALID,0,VALID,91.09,VALID,0,VALID,22.8037,VALID,18,VALID,0.725391,
2009-10-09, 03:34:05,VALID,998.022,VALID,0,VALID,91.0671,VALID,0,VALID,22.7825,VALID,18,VALID,0.720703,
2009-10-09, 03:35:05,VALID,998.019,VALID,0,VALID,90.9222,VALID,0,VALID,22.8037,VALID,18,VALID,0.679297,
2009-10-09, 03:36:05,VALID,998.021,VALID,0,VALID,91.0366,VALID,0,VALID,22.8037,VALID,18,VALID,0.607031,
2009-10-09, 03:37:05,VALID,998.021,VALID,0,VALID,91.0214,VALID,0,VALID,22.7842,VALID,18,VALID,0.561328,
2009-10-09, 03:38:05,VALID,998.023,VALID,0,VALID,91.0519,VALID,0,VALID,22.8037,VALID,18,VALID,0.577344,
2009-10-09, 03:39:05,VALID,998.038,VALID,0,VALID,91.0595,VALID,0,VALID,22.7825,VALID,18,VALID,0.511719,
2009-10-09, 03:40:05,VALID,998.033,VALID,0,VALID,90.9374,VALID,0,VALID,22.7435,VALID,18,VALID,0.646875,
2009-10-09, 03:41:05,VALID,998.015,VALID,0,VALID,91.1129,VALID,0,VALID,22.7647,VALID,18,VALID,0.723047,
2009-10-09, 03:42:05,VALID,998.032,VALID,0,VALID,91.1663,VALID,0,VALID,22.763,VALID,18,VALID,0.794141,
2009-10-09, 03:43:05,VALID,998.033,VALID,0,VALID,91.1511,VALID,0,VALID,22.763,VALID,18,VALID,0.811328,
2009-10-09, 03:44:05,VALID,998.062,VALID,0,VALID,91.0748,VALID,0,VALID,22.786,VALID,18,VALID,0.871875,
2009-10-09, 03:45:05,VALID,998.059,VALID,0,VALID,91.2045,VALID,0,VALID,22.8055,VALID,18,VALID,0.849609,